Location: Unspecified
(0.0000°N, 0.0000°E)
Time: 18:39:36
(UTC+02:00)

Transit 2A - Visible Passes

Search period start: 20 April 2018 00:00
Search period end: 30 April 2018 00:00
Orbit: 597 x 962 km, 66.7° (Epoch: 19 April)

Date Brightness Start Highest point End Pass type
(mag) Time Alt. Az. Time Alt. Az. Time Alt. Az.
20 Apr 8.5 07:14:18 10° SSE 07:19:43 29° ESE 07:25:04 10° NE visible
21 Apr 9.0 06:41:25 10° SSE 06:45:39 19° ESE 06:49:52 10° ENE visible
22 Apr 9.3 06:09:55 10° SE 06:11:35 11° ESE 06:13:14 10° E visible
22 Apr 8.4 20:26:14 10° WNW 20:28:47 15° WSW 20:31:23 10° SSW visible
23 Apr 6.6 07:14:17 10° SSW 07:20:40 81° ESE 07:26:54 10° NNE visible
24 Apr 7.3 06:40:30 10° S 06:46:39 51° ESE 06:52:41 10° NE visible
25 Apr 8.0 06:07:00 10° S 06:12:36 33° ESE 06:18:06 10° NE visible
26 Apr 8.6 05:34:05 10° SSE 05:38:33 21° ESE 05:43:04 10° ENE visible
26 Apr 7.0 07:15:48 10° SW 07:21:36 37° WNW 07:27:14 10° N visible
27 Apr 9.0 05:02:28 11° SE 05:04:28 13° ESE 05:07:02 10° E visible
27 Apr 6.5 06:43:04 19° SW 06:47:35 59° WNW 06:53:39 10° N visible
28 Apr 6.3 06:11:19 43° SSW 06:13:34 89° ESE 06:19:46 10° NNE visible
29 Apr 6.9 05:39:27 57° ESE 05:39:33 57° ESE 05:45:36 10° NNE visible
29 Apr 8.1 07:20:01 10° W 07:22:31 13° WNW 07:25:05 10° NW visible
